[Date Prev][Date Next][Thread Prev][Thread Next] - [Date Index][Thread Index][Author Index]

2 Line ISS Keps 11-16



ISS
1 25544U 98067A   03320.20261906  .00018809  00000-0  19954-3 0  7775
2 25544  51.6314 333.6405 0006437 140.2184 260.9634 15.64110945284769


----
Via the sarex mailing list at AMSAT.ORG courtesy of AMSAT-NA.
To unsubscribe, send "unsubscribe sarex" to Majordomo@amsat.org



AMSAT Top AMSAT Home